Regional Weather Roundup
Issued by NWS Green Bay, WI

Home | Current Version | Previous Version | Graphics & Text | Print | Product List | Glossary Off
Versions: 1 2 3 4 5 6 7 8 9 10 11 12 13 14 15 16 17 18 19 20 21 22 23 24 25 26 27 28 29 30 31 32 33 34 35 36 37 38 39 40 41 42 43 44 45 46 47 48 49 50

000
ASUS43 KGRB 280811
RWRGRB

NORTH-CENTRAL AND NORTHEAST WISCONSIN REGIONAL WEATHER ROUNDUP
NATIONAL WEATHER SERVICE GREEN BAY WI
300 AM CDT THU MAY 28 2015

WIZ005-009-010>012-018-019-280900-
NORTH CENTRAL WISCONSIN

CITY           SKY/WX    TMP DP  RH WIND       PRES   REMARKS
IRONWOOD       CLEAR     52  50  93 E3        30.06R
MANITOWISH WTR FOG       48  48 100 CALM      30.10S VSB 1/2
ARBOR VITAE    FOG       52  51  95 CALM      30.10S VSB 1
EAGLE RIVER    FOG       48  48 100 CALM      30.10S VSB 3/4
LAND O LAKES   CLEAR     46  46 100 CALM      30.12R FOG
RHINELANDER    FOG       50  49  96 CALM      30.11R VSB 1/2
PHILLIPS       CLEAR     49  49  99 CALM      30.09R
ANTIGO         CLEAR     51  51 100 CALM      30.11R FOG
TOMAHAWK       CLEAR     48  47  97 CALM      30.11R
MERRILL        FOG       49  49 100 CALM      30.11R VSB 3/4
$$

WIZ013-073-280900-
NORTHEAST WISCONSIN

CITY           SKY/WX    TMP DP  RH WIND       PRES   REMARKS
IRON MOUNTAIN  CLEAR     51  48  89 NW3       30.09R
MARINETTE      CLEAR     57  52  82 CALM      30.08R
OCONTO         CLEAR     50  50 100 CALM      30.09R
$$

WIZ017-030-035>037-045-280900-
CENTRAL WISCONSIN

CITY           SKY/WX    TMP DP  RH WIND       PRES   REMARKS
MEDFORD        CLEAR     53  52  95 CALM      30.10R
WAUSAU         CLEAR     56  55  97 CALM      30.09R
MOSINEE        CLEAR     54  54 100 S3        30.12R
MARSHFIELD     CLEAR     57  53  86 CALM      30.10S
WISC RAPIDS    CLEAR     56  53  90 E3        30.11R
STEVENS POINT  FOG       52  52 100 CALM      30.11S VSB 1/2
WAUPACA        CLEAR     57  56  97 CALM      30.11R FOG
SHAWANO        PTCLDY    56  55  95 S3        30.10S
CLINTONVILLE   FOG       54  54 100 CALM      30.10S VSB 1
$$

WIZ038-039-048-051-280900-
FOX VALLEY

CITY           SKY/WX    TMP DP  RH WIND       PRES   REMARKS
NWS GREEN BAY  CLEAR     59  55  87 CALM      30.10R
APPLETON       CLEAR     59  55  88 SW7       30.11S
OSHKOSH        CLEAR     58  54  86 S7        30.11R
FOND DU LAC    CLEAR     58  55  90 S3        30.12R
$$

WIZ022-050-052-280900-
EAST CENTRAL WISCONSIN

CITY           SKY/WX    TMP DP  RH WIND       PRES   REMARKS
STURGEON BAY   CLEAR     55  52  88 S3        30.13R
MANITOWOC      CLEAR     51  50  96 CALM      30.11R
SHEBOYGAN      CLEAR     58  55  90 SW6       30.12R
$$

LMZ563-521-522-541>543-280900-
LAKESHORE

STATION/POSITION TIME  TEMP    WIND        PRES    VSBY  WAVE
                       AIR SEA DIR/SP/G                  HT/PER
                 (UTC) (F)     (DEG/KT/KT) (MB)    (MI)  (FT/S)
SHEBOYGAN LKSHOR 0800   62     200/  6/  6 1019.9R
KEWAUNEE LKSHORE 0700   51      CALM  /  3 1018.2R
ALGOMA MARINA    0738             CALM       N/A
NORTHPORT PIER   0700   51     170/  5/  7 1018.3S
N MID LAKE BUOY  0750   44 36  210/  8/  8 1019.4R         1/ 3
SISTER BAY LKSHO 0718   53     170/  8/ 11   N/A
CHAMBERS ISLAND  0700   57     190/  3/  6 1018.6R
MENOMINEE LKSHOR 0700   59     220/  6/  8 1019.0R
$$



USA.gov is the U.S. government's official web portal to all federal, state and local government web resources and services.